Flag for Qatar Weather past 2 weeks in Al-Jamiliyah, Qatar

Now
90 °F

Fog.


Feels Like: 109 °F
Forecast: 88 / 106 °F
Wind: 6 mph from South

Location: Al Udeid

Current Time: Aug 2, 2015 at 2:31:11 AM

Latest Report: Aug 2, 2015 at 1:58 AM


Visibility: 6 mi

Pressure: 29.53 "Hg

Humidity: 77%

Dew point: 81 °F

Historic Weather in Al-Jamiliyah — Graph

°F

Al-Jamiliyah temperature yesterday

Maximum temperature yesterday: 115 °F (at 12:58 PM)
Minimum temperature yesterday: 89 °F (at 1:58 AM)
Average temperature yesterday: 99 °F

Past Weeks' High & Low Weather Summary

 TemperatureHumidityPressure
High116 °F (Jul 30, 1:58 PM)87% (Jul 26, 4:58 AM)29.55 "Hg (Jul 26, 4:58 AM)
Low83 °F (Jul 19, 4:58 AM)5% (Jul 19, 12:58 PM)29.35 "Hg (Jul 18, 4:58 PM)
Average100 °F39%29.45 "Hg
* Reported Jul 18 12:58 AM — Aug 2 12:58 AM, Al-Jamiliyah, Weather by CustomWeather, © 2015

Note: Actual official high and low records may vary slightly from our data, if they occured in-between our weather recording intervals... More about our weather records

Advertising

Al-Jamiliyah weather history for previous 24 hours

 ConditionsComfort  
Time TempWeatherWind HumidityBarometerVisibility
12:58 AM
Sun, Aug 2
90 °FSunny.6 mph76%29.52 "HgN/A
11:58 PM
Sat, Aug 1
92 °FSunny.3 mph72%29.51 "HgN/A
10:58 PM93 °FSunny.3 mph72%29.53 "HgN/A
9:58 PM93 °FSunny.6 mph72%29.55 "HgN/A
8:58 PM94 °FSunny.8 mph69%29.53 "HgN/A
7:58 PM95 °FSunny.12 mph68%29.51 "HgN/A
6:58 PM96 °FSunny.16 mph63%29.49 "HgN/A
5:58 PM100 °FSunny.12 mph55%29.47 "HgN/A
4:59 PM102 °FSunny.12 mph49%29.46 "HgN/A
3:58 PM104 °FSunny.15 mph47%29.46 "HgN/A
2:58 PM106 °FScattered clouds.17 mph39%29.47 "HgN/A
1:58 PM113 °FSunny.5 mph23%29.47 "HgN/A
12:58 PM115 °FClear.6 mph9%29.49 "HgN/A
11:58 AM114 °FClear.1 mph11%29.51 "HgN/A
10:58 AM112 °FClear.3 mph17%29.52 "HgN/A
9:58 AM107 °FClear.6 mph27%29.53 "HgN/A
8:58 AM103 °FClear.5 mph36%29.53 "HgN/A
7:58 AM97 °FClear.8 mph55%29.53 "HgN/A
6:59 AM92 °FClear.6 mph72%29.52 "Hg4 mi
5:58 AM90 °FFog.6 mph78%29.51 "Hg5 mi
4:58 AM89 °FFog.6 mph80%29.49 "Hg6 mi
3:58 AM90 °FFog.8 mph78%29.49 "Hg5 mi
2:58 AM90 °FFog.8 mph78%29.48 "Hg5 mi
Weather by CustomWeather, © 2015

See weather overviewHow to use our weather pages